Location: Berg
(47.2344°N, 9.5296°E)
Time: 14:16:02
(UTC+00:00)

Cosmos 44 - Pass Details

Date: 12 May 2021
Orbit: 571 x 791 km, 65.1° (Epoch: 13 June)

Event Time Altitude Azimuth Distance (km) Brightness Sun altitude
Rises 22:19:59 0° 318° (NW) 3,293 7.8 -23.1°
Reaches altitude 10° 22:22:33 10° 311° (NW) 2,350 6.8 -23.2°
Maximum altitude 22:27:35 41° 243° (WSW) 1,114 4.2 -23.4°
Enters shadow 22:28:05 40° 229° (SW) 1,128 4.1 -23.4°
